Weather History for Rockport, TX

Change the Weather History Date:

Thursday, November 8, 2012

  Actual Average Record
Temperature  
Mean Temperature 76 °F -  
Max Temperature 82 °F 75 °F 86 °F (1989)
Min Temperature 69 °F 60 °F 39 °F (1959)
Cooling Degree Days 10    
Growing Degree Days 26 (Base 50)    
Moisture  
Dew Point 64 °F    
Average Humidity 67    
Maximum Humidity 84    
Minimum Humidity 52    
Precipitation  
Precipitation 0.00 in - - ()
Sea Level Pressure  
Sea Level Pressure 30.09 in    
Wind  
Wind Speed 8 mph (SSE)    
Max Wind Speed 16 mph    
Max Gust Speed 24 mph    
Visibility 10 miles    
Events      
Averages and records for this station are not official NWS values.
T = Trace of Precipitation, MM = Missing Value Source: NWS Daily Summary

Daily Weather History Graph

Daily Weather History Graph

Search for Another Location

Airport:

Trip Planner

Search our weather history database for the weather conditions in past years. The results will help you decide how hot, cold, wet, or windy it might be!

Date:

Astronomy

Nov. 08, 2012 Rise Set
Actual Time 6:44 AM CST 5:38 PM CST
Civil Twilight 6:20 AM CST 6:03 PM CST
Nautical Twilight 5:52 AM CST 6:31 PM CST
Astronomical Twilight 5:24 AM CST 6:59 PM CST
Moon 1:10 AM CST (11/8) 1:54 PM CST (11/8)
Length of Visible Light 11h 42m
Length of Day
10h 53m
Waning Crescent, 32% of the Moon is Illuminated
Nov 8
Waning Crescent
Nov 13
New
Nov 20
First Quarter
Nov 28
Full
Dec 6
Last Quarter

Hourly Weather History & Observations

Time (CST) Temp. Heat Index Dew Point Humidity Pressure Visibility Wind Dir Wind Speed Gust Speed Precip Events Conditions
12:53 AM 73.0 °F - 62.1 °F 68% 30.09 in 10.0 mi SSE 5.8 mph - N/A   Clear
1:53 AM 72.0 °F - 62.1 °F 71% 30.09 in 10.0 mi South 4.6 mph - N/A   Clear
2:53 AM 72.0 °F - 63.0 °F 73% 30.09 in 10.0 mi South 5.8 mph - N/A   Clear
3:53 AM 70.0 °F - 63.0 °F 78% 30.08 in 10.0 mi South 3.5 mph - N/A   Clear
4:53 AM 69.1 °F - 64.0 °F 84% 30.08 in 10.0 mi South 4.6 mph - N/A   Clear
5:53 AM 70.0 °F - 64.0 °F 81% 30.10 in 10.0 mi South 4.6 mph - N/A   Clear
6:53 AM 70.0 °F - 64.0 °F 81% 30.11 in 10.0 mi South 4.6 mph - N/A   Clear
7:53 AM 75.0 °F - 66.0 °F 73% 30.13 in 10.0 mi South 5.8 mph - N/A   Clear
8:53 AM 77.0 °F - 66.0 °F 69% 30.15 in 10.0 mi South 8.1 mph - N/A   Mostly Cloudy
9:53 AM 80.1 °F 81.9 °F 64.9 °F 60% 30.16 in 10.0 mi South 11.5 mph 16.1 mph N/A   Clear
10:53 AM 81.0 °F 82.7 °F 64.9 °F 58% 30.15 in 10.0 mi South 10.4 mph 20.7 mph N/A   Clear
11:53 AM 82.9 °F 84.4 °F 64.0 °F 53% 30.13 in 10.0 mi SSE 13.8 mph 18.4 mph N/A   Clear
12:53 PM 82.0 °F 83.1 °F 63.0 °F 52% 30.09 in 10.0 mi SSE 16.1 mph 23.0 mph N/A   Clear
1:53 PM 82.0 °F 83.1 °F 63.0 °F 52% 30.07 in 10.0 mi SSE 16.1 mph 24.2 mph N/A   Clear
2:53 PM 82.0 °F 83.1 °F 63.0 °F 52% 30.05 in 10.0 mi SE 16.1 mph 21.9 mph N/A   Clear
3:53 PM 80.1 °F 81.7 °F 64.0 °F 58% 30.05 in 10.0 mi SSE 16.1 mph 23.0 mph N/A   Clear
4:53 PM 78.1 °F - 64.0 °F 62% 30.05 in 10.0 mi SSE 12.7 mph 20.7 mph N/A   Clear
5:53 PM 75.9 °F - 64.9 °F 69% 30.06 in 10.0 mi SSE 12.7 mph - N/A   Clear
6:53 PM 75.9 °F - 64.9 °F 69% 30.07 in 10.0 mi SSE 9.2 mph - N/A   Clear
7:53 PM 75.9 °F - 64.9 °F 69% 30.09 in 10.0 mi SSE 11.5 mph - N/A   Clear
8:53 PM 75.9 °F - 64.0 °F 67% 30.09 in 10.0 mi SSE 11.5 mph - N/A   Scattered Clouds
9:53 PM 75.9 °F - 64.9 °F 69% 30.08 in 10.0 mi SSE 11.5 mph - N/A   Scattered Clouds
10:53 PM 75.9 °F - 64.0 °F 67% 30.08 in 10.0 mi SSE 10.4 mph - N/A   Clear
11:53 PM 75.9 °F - 64.9 °F 69% 30.07 in 10.0 mi SSE 12.7 mph 21.9 mph N/A   Partly Cloudy